User: anonymous   Login
Location: Unspecified
(0.0000°N, 0.0000°E)
Time: 19:26:56
(UTC+00:00)
Language:

Meteor 2-6 - Orbit

View from above orbital plane
View from above orbital plane
View from above satellite
View from above satellite

Ground track
Ground track

The orbit data is extracted from the following two-line orbital elements,

1 11962U 80073A   18169.19531778 -.00000063  00000-0 -42286-4 0  9990
2 11962  81.2240  63.2404 0036308 129.1158 231.3250 14.10560035943090
Epoch (UTC): 18 June 2018 04:41:15
Eccentricity: 0.0036308
inclination: 81.2240°
perigee height: 831 km
apogee height: 884 km
right ascension of ascending node: 63.2404°
argument of perigee: 129.1158°
revolutions per day: 14.10560035
mean anomaly at epoch: 231.3250°
orbit number at epoch: 94309

The dashed part of the orbit path shows where the satellite is in the earth's shadow,  

DLR